| time (UTC) | temp F | wind direction | speed knots | gust knots | rain 1hr in | rain 24hr in | rain mn in | humidity % | barometer mb |
| 20260905214601 | 101 | 188 | 7.8 | 16.5 | 0.00 | 0.00 | 0.00 | 18 | 950.1 |
| 20260905213059 | 100 | 210 | 11.3 | 17.4 | 0.00 | 0.00 | 0.00 | 18 | 950.3 |
| 20260905211629 | 100 | 205 | 11.3 | 20.9 | 0.00 | 0.00 | 0.00 | 18 | 950.5 |
| 20260905210057 | 99 | 231 | 9.6 | 19.1 | 0.00 | 0.00 | 0.00 | 17 | 950.6 |
| 20260905204558 | 99 | 224 | 6.1 | 16.5 | 0.00 | 0.00 | 0.00 | 16 | 950.8 |
| 20260905203114 | 99 | 204 | 11.3 | 19.1 | 0.00 | 0.00 | 0.00 | 16 | 951.0 |
| 20260905201552 | 98 | 158 | 7.8 | 18.2 | 0.00 | 0.00 | 0.00 | 16 | 951.4 |
| 20260905200056 | 97 | 235 | 6.1 | 19.1 | 0.00 | 0.00 | 0.00 | 16 | 951.6 |
| 20260905194547 | 97 | 195 | 7.8 | 17.4 | 0.00 | 0.00 | 0.00 | 16 | 951.8 |
| 20260905193047 | 96 | 210 | 9.6 | 15.6 | 0.00 | 0.00 | 0.00 | 16 | 951.9 |
| 20260905191546 | 96 | 161 | 6.1 | 16.5 | 0.00 | 0.00 | 0.00 | 16 | 952.0 |
| 20260905190043 | 96 | 9.6 | 13.9 | 0.00 | 0.00 | 0.00 | 16 | 952.0 | |
| 20260905184541 | 95 | 231 | 6.1 | 13.0 | 0.00 | 0.00 | 0.00 | 16 | 952.2 |
| 20260905183038 | 94 | 2.6 | 12.2 | 0.00 | 0.00 | 0.00 | 16 | 952.3 | |
| 20260905181552 | 93 | 212 | 0.9 | 11.3 | 0.00 | 0.00 | 0.00 | 16 | 952.5 |
| 20260905180035 | 93 | 226 | 3.5 | 15.6 | 0.00 | 0.00 | 0.00 | 17 | 952.5 |
| 20260905174541 | 92 | 223 | 1.7 | 12.2 | 0.00 | 0.00 | 0.00 | 17 | 952.4 |
| 20260905173033 | 92 | 214 | 3.5 | 11.3 | 0.00 | 0.00 | 0.00 | 17 | 952.4 |
| 20260905171538 | 91 | 225 | 0.0 | 4.3 | 0.00 | 0.00 | 0.00 | 18 | 952.4 |
| 20260905170027 | 89 | 217 | 0.0 | 5.2 | 0.00 | 0.00 | 0.00 | 18 | 952.5 |
| 20260905164530 | 88 | 207 | 0.0 | 4.3 | 0.00 | 0.00 | 0.00 | 18 | 952.4 |
| 20260905163023 | 87 | 233 | 0.0 | 4.3 | 0.00 | 0.00 | 0.00 | 18 | 952.4 |
| 20260905161523 | 87 | 0.0 | 4.3 | 0.00 | 0.00 | 0.00 | 18 | 952.4 | |
| 20260905160032 | 87 | 241 | 0.0 | 0.0 | 0.00 | 0.00 | 0.00 | 17 | 952.3 |
| 20260905154521 | 85 | 0.0 | 0.0 | 0.00 | 0.00 | 0.00 | 18 | 952.3 | |
| 20260905153022 | 85 | 0.0 | 0.0 | 0.00 | 0.00 | 0.00 | 18 | 952.1 | |
| 20260905151517 | 85 | 241 | 0.0 | 0.0 | 0.00 | 0.00 | 0.00 | 17 | 952.0 |
| 20260905150015 | 86 | 209 | 0.0 | 0.0 | 0.00 | 0.00 | 0.00 | 17 | 952.1 |
| 20260905144514 | 85 | 95 | 0.0 | 0.0 | 0.00 | 0.00 | 0.00 | 17 | 951.9 |
| 20260905143013 | 83 | 92 | 0.0 | 0.0 | 0.00 | 0.00 | 0.00 | 18 | 951.9 |
| 20260905141510 | 82 | 117 | 0.0 | 0.0 | 0.00 | 0.00 | 0.00 | 18 | 951.7 |
| 20260905140009 | 81 | 119 | 0.0 | 0.0 | 0.00 | 0.00 | 0.00 | 18 | 951.4 |
| 20260905134506 | 81 | 119 | 0.0 | 0.0 | 0.00 | 0.00 | 0.00 | 18 | 951.2 |
| 20260905133005 | 80 | 114 | 0.0 | 0.0 | 0.00 | 0.00 | 0.00 | 18 | 950.9 |
| 20260905131606 | 82 | 131 | 0.0 | 0.0 | 0.00 | 0.00 | 0.00 | 18 | 950.6 |
| 20260905130059 | 82 | 120 | 0.0 | 0.0 | 0.00 | 0.00 | 0.00 | 17 | 950.4 |
| 20260905124558 | 82 | 118 | 0.0 | 0.0 | 0.00 | 0.00 | 0.00 | 17 | 950.3 |
| 20260905123055 | 81 | 120 | 0.0 | 0.0 | 0.00 | 0.00 | 0.00 | 17 | 950.2 |
| 20260905121557 | 82 | 115 | 0.0 | 0.0 | 0.00 | 0.00 | 0.00 | 17 | 950.1 |
| 20260905120114 | 82 | 121 | 0.0 | 0.0 | 0.00 | 0.00 | 0.00 | 17 | 950.2 |
| 20260905114555 | 82 | 121 | 0.0 | 0.0 | 0.00 | 0.00 | 0.00 | 17 | 950.2 |
| 20260905113054 | 81 | 125 | 0.0 | 0.0 | 0.00 | 0.00 | 0.00 | 18 | 950.2 |
| 20260905111608 | 81 | 124 | 0.0 | 0.0 | 0.00 | 0.00 | 0.00 | 17 | 950.2 |
| 20260905110055 | 81 | 91 | 0.0 | 0.0 | 0.00 | 0.00 | 0.00 | 16 | 950.1 |
| 20260905104548 | 82 | 122 | 0.0 | 0.0 | 0.00 | 0.00 | 0.00 | 16 | 950.2 |
| 20260905103050 | 82 | 123 | 0.0 | 0.0 | 0.00 | 0.00 | 0.00 | 16 | 950.2 |
| 20260905101544 | 83 | 143 | 0.0 | 0.0 | 0.00 | 0.00 | 0.00 | 16 | 950.1 |
| 20260905100046 | 83 | 152 | 0.0 | 0.0 | 0.00 | 0.00 | 0.00 | 15 | 950.0 |
| 20260905094541 | 83 | 151 | 0.0 | 0.0 | 0.00 | 0.00 | 0.00 | 15 | 950.1 |
| 20260905093039 | 83 | 131 | 0.0 | 0.0 | 0.00 | 0.00 | 0.00 | 15 | 949.9 |
| 20260905091610 | 83 | 141 | 0.0 | 0.0 | 0.00 | 0.00 | 0.00 | 14 | 949.9 |
| 20260905090036 | 84 | 150 | 0.0 | 0.0 | 0.00 | 0.00 | 0.00 | 14 | 949.8 |
| 20260905084534 | 85 | 218 | 0.0 | 0.0 | 0.00 | 0.00 | 0.00 | 14 | 949.9 |
| 20260905083032 | 85 | 107 | 0.0 | 0.0 | 0.00 | 0.00 | 0.00 | 14 | 949.9 |
| 20260905081529 | 85 | 171 | 0.0 | 0.0 | 0.00 | 0.00 | 0.00 | 14 | 949.8 |
| 20260905080036 | 86 | 152 | 0.0 | 0.0 | 0.00 | 0.00 | 0.00 | 13 | 949.8 |
| 20260905074524 | 88 | 219 | 0.0 | 0.0 | 0.00 | 0.00 | 0.00 | 13 | 949.7 |
| 20260905073022 | 88 | 119 | 0.0 | 2.6 | 0.00 | 0.00 | 0.00 | 12 | 949.5 |
| 20260905071522 | 87 | 137 | 0.0 | 0.0 | 0.00 | 0.00 | 0.00 | 13 | 949.5 |
| 20260905070023 | 88 | 153 | 0.0 | 0.0 | 0.00 | 0.00 | 0.00 | 13 | 949.5 |
| 20260905064518 | 89 | 188 | 0.0 | 1.7 | 0.00 | 0.00 | 0.00 | 13 | 949.4 |
| 20260905063015 | 89 | 113 | 0.0 | 0.9 | 0.00 | 0.00 | 0.00 | 12 | 949.4 |
| 20260905061515 | 90 | 122 | 0.0 | 0.9 | 0.00 | 0.00 | 0.00 | 12 | 949.3 |
| 20260905060014 | 90 | 151 | 0.0 | 4.3 | 0.00 | 0.00 | 0.00 | 12 | 949.3 |
| 20260905054517 | 90 | 122 | 0.0 | 5.2 | 0.00 | 0.00 | 0.00 | 12 | 949.2 |
| 20260905053013 | 90 | 139 | 0.0 | 2.6 | 0.00 | 0.00 | 0.00 | 11 | 949.1 |
| 20260905051514 | 90 | 105 | 0.0 | 1.7 | 0.00 | 0.00 | 0.00 | 11 | 949.1 |
| 20260905050012 | 90 | 0.0 | 4.3 | 0.00 | 0.00 | 0.00 | 10 | 949.0 | |
| 20260905044511 | 91 | 1.7 | 9.6 | 0.00 | 0.00 | 0.00 | 10 | 949.0 | |
| 20260905043020 | 92 | 0.9 | 9.6 | 0.00 | 0.00 | 0.00 | 9 | 948.8 | |
| 20260905041509 | 92 | 2.6 | 11.3 | 0.00 | 0.00 | 0.00 | 9 | 948.7 | |
| 20260905040009 | 92 | 0.9 | 8.7 | 0.00 | 0.00 | 0.00 | 8 | 948.5 | |
| 20260905034508 | 92 | 156 | 0.9 | 5.2 | 0.00 | 0.00 | 0.00 | 8 | 948.3 |
| 20260905033007 | 92 | 217 | 0.0 | 0.9 | 0.00 | 0.00 | 0.00 | 8 | 948.1 |
| 20260905031507 | 93 | 137 | 0.0 | 6.1 | 0.00 | 0.00 | 0.00 | 9 | 947.9 |
| 20260905030008 | 94 | 134 | 0.0 | 6.1 | 0.00 | 0.00 | 0.00 | 9 | 947.6 |
| 20260905024506 | 94 | 198 | 0.9 | 7.0 | 0.00 | 0.00 | 0.00 | 8 | 947.5 |
| 20260905023006 | 95 | 164 | 2.6 | 8.7 | 0.00 | 0.00 | 0.00 | 8 | 947.4 |
| 20260905021505 | 95 | 161 | 0.0 | 8.7 | 0.00 | 0.00 | 0.00 | 8 | 947.4 |
| 20260905020006 | 96 | 188 | 3.5 | 11.3 | 0.00 | 0.00 | 0.00 | 8 | 947.3 |
| 20260905014503 | 97 | 136 | 5.2 | 14.8 | 0.00 | 0.00 | 0.00 | 9 | 947.2 |
| 20260905013002 | 98 | 147 | 5.2 | 13.0 | 0.00 | 0.00 | 0.00 | 8 | 947.3 |
| 20260905011501 | 98 | 149 | 4.3 | 18.2 | 0.00 | 0.00 | 0.00 | 8 | 947.3 |
| 20260905010001 | 99 | 131 | 0.9 | 13.0 | 0.00 | 0.00 | 0.00 | 8 | 947.4 |
| 20260905004600 | 99 | 166 | 9.6 | 16.5 | 0.00 | 0.00 | 0.00 | 8 | 947.3 |
| 20260905003100 | 99 | 229 | 6.1 | 13.0 | 0.00 | 0.00 | 0.00 | 8 | 947.3 |
| 20260905001606 | 99 | 188 | 1.7 | 19.1 | 0.00 | 0.00 | 0.00 | 11 | 947.4 |
| 20260905000112 | 99 | 151 | 4.3 | 19.1 | 0.00 | 0.00 | 0.00 | 11 | 947.4 |
| 20260904234601 | 99 | 160 | 6.1 | 15.6 | 0.00 | 0.00 | 0.00 | 13 | 947.4 |
| 20260904233118 | 99 | 215 | 7.0 | 15.6 | 0.00 | 0.00 | 0.00 | 15 | 947.5 |
| 20260904231605 | 99 | 198 | 3.5 | 16.5 | 0.00 | 0.00 | 0.00 | 15 | 947.7 |
| 20260904230058 | 99 | 214 | 5.2 | 16.5 | 0.00 | 0.00 | 0.00 | 14 | 947.9 |
| 20260904224558 | 99 | 205 | 9.6 | 15.6 | 0.00 | 0.00 | 0.00 | 15 | 948.0 |
| 20260904223119 | 98 | 213 | 8.7 | 20.0 | 0.00 | 0.00 | 0.00 | 13 | 948.1 |
| 20260904221555 | 99 | 196 | 14.8 | 23.5 | 0.00 | 0.00 | 0.00 | 11 | 948.2 |
| 20260904220052 | 99 | 176 | 7.8 | 21.7 | 0.00 | 0.00 | 0.00 | 8 | 948.3 |